KQ4NAL Weather Reports


Display with metric or nautical units.
time (UTC)temp
F
wind
direction
speed
MPH
gust
MPH
rain 1hr
in
rain 24hr
in
rain mn
in
humidity
%
barometer
mb
20260503195725 61 213 6.0 7.0 0.00 0.00 0.00 39 1016.9
20260503195222 61 174 6.0 8.0 0.00 0.00 0.00 40 1017.0
20260503194719 61 338 4.0 5.0 0.00 0.00 0.00 40 1017.4
20260503194215 62 200 8.0 10.0 0.00 0.00 0.00 38 1017.6
20260503193711 61 248 8.0 13.0 0.00 0.00 0.00 38 1017.6
20260503193207 61 194 9.0 14.0 0.00 0.00 0.00 39 1017.8
20260503192703 64 197 7.0 8.0 0.00 0.00 0.00 37 1017.4
20260503192158 63 277 3.0 3.0 0.00 0.00 0.00 43 1017.7
20260503191655 62 309 2.0 2.0 0.00 0.00 0.00 40 1017.9
20260503191152 62 209 5.0 7.0 0.00 0.00 0.00 40 1018.0
20260503190649 63 264 5.0 7.0 0.00 0.00 0.00 38 1018.2
20260503190146 63 244 5.0 6.0 0.00 0.00 0.00 38 1017.8
20260503185643 63 322 5.0 9.0 0.00 0.00 0.00 43 1018.3
20260503185138 62 218 2.0 3.0 0.00 0.00 0.00 42 1018.2
20260503184633 62 144 5.0 7.0 0.00 0.00 0.00 36 1018.5
20260503184130 62 23 2.0 3.0 0.00 0.00 0.00 37 1018.3
20260503183626 62 14 5.0 7.0 0.00 0.00 0.00 36 1018.7
20260503183124 61 196 7.0 8.0 0.00 0.00 0.00 41 1018.7
20260503182622 60 202 7.0 8.0 0.00 0.00 0.00 42 1018.4
20260503182120 61 230 9.0 11.0 0.00 0.00 0.00 38 1018.7
20260503181617 61 25 6.0 8.0 0.00 0.00 0.00 41 1018.7
20260503181113 60 177 3.0 5.0 0.00 0.00 0.00 39 1018.7
20260503180610 61 181 7.0 13.0 0.00 0.00 0.00 44 1019.0
20260503180109 59 321 5.0 7.0 0.00 0.00 0.00 39 1019.0
20260503175605 61 180 9.0 10.0 0.00 0.00 0.00 41 1018.9
20260503175102 61 232 3.0 3.0 0.00 0.00 0.00 35 1018.7
20260503174559 60 218 4.0 7.0 0.00 0.00 0.00 43 1019.2
20260503174055 61 222 7.0 10.0 0.00 0.00 0.00 41 1019.2
20260503173550 61 4 1.0 2.0 0.00 0.00 0.00 47 1019.2
20260503173047 61 24 5.0 9.0 0.00 0.00 0.00 39 1019.3
20260503172545 60 186 5.0 7.0 0.00 0.00 0.00 40 1019.6
20260503172042 61 330 3.0 6.0 0.00 0.00 0.00 42 1019.7
20260503171538 59 276 5.0 7.0 0.00 0.00 0.00 39 1019.6
20260503171036 61 15 3.0 5.0 0.00 0.00 0.00 43 1019.8
20260503170532 60 212 8.0 9.0 0.00 0.00 0.00 42 1019.8
20260503150924 56 213 3.0 6.0 0.00 0.00 0.00 47 1021.2
20260503150421 56 354 2.0 3.0 0.00 0.00 0.00 48 1021.1
20260503131314 48 319 1.0 2.0 0.00 0.00 0.00 68 1021.3
20260503130812 47 170 3.0 3.0 0.00 0.00 0.00 70 1021.4
20260503130309 45 324 2.0 3.0 0.00 0.00 0.00 71 1021.3
20260503110702 28 1 0.0 0.0 0.00 0.00 0.00 99 1020.4
20260503110200 28 1 0.0 0.0 0.00 0.00 0.00 99 1020.5
20260503100126 27 2 0.0 0.0 0.00 0.00 0.00 99 1020.0
20260503081516 28 0 0.0 0.0 0.00 0.00 0.00 98 1019.8
20260503081013 28 0 0.0 0.0 0.00 0.00 0.00 98 1019.8
20260503080509 28 0 0.0 0.0 0.00 0.00 0.00 98 1020.0
20260503072443 27 0 0.0 0.0 0.00 0.00 0.00 98 1019.5
20260503071940 28 0 0.0 0.0 0.00 0.00 0.00 97 1019.6
20260503071436 28 0 0.0 0.0 0.00 0.00 0.00 97 1019.7
20260503070932 29 0 0.0 0.0 0.00 0.00 0.00 97 1019.8
20260503070430 29 0 0.0 0.0 0.00 0.00 0.00 97 1019.9
20260503054838 31 0 0.0 0.0 0.00 0.00 0.00 96 1020.1
20260503054333 31 0 0.0 0.0 0.00 0.00 0.00 95 1020.0
20260503053831 30 0 0.0 0.0 0.00 0.00 0.00 95 1019.9
20260503053330 30 0 0.0 0.0 0.00 0.00 0.00 95 1020.0
20260503052825 31 0 0.0 0.0 0.00 0.00 0.00 95 1020.0
20260503052322 32 0 0.0 0.0 0.00 0.00 0.00 95 1020.0
20260503051819 32 0 0.0 0.0 0.00 0.00 0.00 95 1020.2
20260503051315 32 0 0.0 0.0 0.00 0.00 0.00 95 1020.1
20260503050812 32 0 0.0 0.0 0.00 0.00 0.00 94 1020.1
20260503050308 32 0 0.0 0.0 0.00 0.00 0.00 94 1020.3
20260503045806 31 359 0.0 0.0 0.00 0.00 0.00 93 1019.9
20260503045305 32 359 0.0 0.0 0.00 0.00 0.00 93 1020.3
20260503044800 32 359 0.0 0.0 0.00 0.00 0.00 93 1020.2
20260503044257 33 359 0.0 0.0 0.00 0.00 0.00 93 1020.1
20260503043754 32 0 0.0 0.0 0.00 0.00 0.00 93 1019.9
20260503043251 32 359 0.0 0.0 0.00 0.00 0.00 92 1020.1
20260503042746 32 359 0.0 0.0 0.00 0.00 0.00 92 1020.2
20260503042243 32 359 0.0 0.0 0.00 0.00 0.00 91 1020.0
20260503041739 33 359 0.0 0.0 0.00 0.00 0.00 91 1020.0
20260503041237 33 359 0.0 0.0 0.00 0.00 0.00 91 1020.0
20260503040735 33 359 0.0 0.0 0.00 0.00 0.00 90 1020.1
20260503040232 34 359 0.0 0.0 0.00 0.00 0.00 90 1020.1
20260503035729 34 359 0.0 0.0 0.00 0.00 0.00 89 1020.3
20260503035227 34 358 0.0 0.0 0.00 0.00 0.00 89 1020.3
20260503034724 33 358 0.0 0.0 0.00 0.00 0.00 87 1020.0
20260503034221 34 358 0.0 0.0 0.00 0.00 0.00 87 1020.2
20260503033718 35 358 0.0 0.0 0.00 0.00 0.00 86 1020.2
20260503033215 36 358 0.0 0.0 0.00 0.00 0.00 86 1020.3
20260503032714 36 2 0.0 0.0 0.00 0.00 0.00 86 1020.2
20260503032212 36 358 0.0 0.0 0.00 0.00 0.00 84 1020.4
20260503031709 36 358 0.0 0.0 0.00 0.00 0.00 83 1020.3
20260503031208 36 358 0.0 0.0 0.00 0.00 0.00 81 1020.1
20260503030702 37 358 0.0 0.0 0.00 0.00 0.00 80 1020.1
20260503030159 37 358 0.0 0.0 0.00 0.00 0.00 79 1020.0
20260503025656 37 358 0.0 0.0 0.00 0.00 0.00 78 1020.0
20260503025154 38 358 0.0 0.0 0.00 0.00 0.00 78 1020.2
20260503024650 39 358 0.0 0.0 0.00 0.00 0.00 78 1020.0
20260503024148 39 358 0.0 0.0 0.00 0.00 0.00 77 1020.0
20260503023644 39 358 0.0 0.0 0.00 0.00 0.00 76 1020.3
20260503023141 39 358 0.0 0.0 0.00 0.00 0.00 76 1019.7
20260503022637 38 358 0.0 0.0 0.00 0.00 0.00 75 1019.8
20260503022132 39 358 0.0 0.0 0.00 0.00 0.00 74 1019.9
20260503021629 39 358 0.0 0.0 0.00 0.00 0.00 73 1019.7
20260503021126 40 358 0.0 0.0 0.00 0.00 0.00 72 1019.8
20260503020623 41 358 0.0 0.0 0.00 0.00 0.00 71 1019.7
20260503020120 42 357 0.0 0.0 0.00 0.00 0.00 69 1019.7
20260503015616 43 353 0.0 1.0 0.00 0.00 0.00 66 1019.6
20260503015113 44 10 2.0 2.0 0.00 0.00 0.00 65 1019.4
20260503014610 43 6 3.0 3.0 0.00 0.00 0.00 64 1019.5
20260503014108 43 8 1.0 1.0 0.00 0.00 0.00 65 1019.4
20260503013605 43 359 1.0 1.0 0.00 0.00 0.00 64 1019.4
20260503013103 44 358 2.0 2.0 0.00 0.00 0.00 64 1019.2
20260503012600 44 0 0.0 1.0 0.00 0.00 0.00 64 1019.5
20260503012056 43 4 1.0 1.0 0.00 0.00 0.00 64 1019.3
20260503011553 43 345 1.0 1.0 0.00 0.00 0.00 63 1019.1
20260503011050 44 358 0.0 0.0 0.00 0.00 0.00 64 1019.2
20260503010546 43 4 1.0 2.0 0.00 0.00 0.00 63 1018.9
20260503010044 43 355 1.0 1.0 0.00 0.00 0.00 65 1018.9
20260503005541 44 2 0.0 0.0 0.00 0.00 0.00 65 1018.9
20260503005038 44 358 0.0 0.0 0.00 0.00 0.00 63 1018.7
20260503004534 45 1 0.0 0.0 0.00 0.00 0.00 61 1018.9
20260503004033 46 358 0.0 0.0 0.00 0.00 0.00 58 1018.7
20260503003528 47 353 0.0 0.0 0.00 0.00 0.00 56 1018.7
20260503003026 47 347 1.0 1.0 0.00 0.00 0.00 54 1018.5
20260503002523 48 1 1.0 1.0 0.00 0.00 0.00 52 1018.4
20260503002020 48 352 2.0 3.0 0.00 0.00 0.00 52 1018.4
20260503001516 49 6 1.0 2.0 0.00 0.00 0.00 50 1018.2
20260503001014 50 317 2.0 2.0 0.00 0.00 0.00 50 1018.4
20260503000511 50 1 3.0 5.0 0.00 0.00 0.00 49 1018.2
20260503000007 50 342 1.0 1.0 0.00 0.00 0.00 49 1018.4
20260502235503 51 332 3.0 5.0 0.00 0.00 0.00 47 1018.2
20260502235001 51 353 3.0 5.0 0.00 0.00 0.00 47 1018.2
20260502234457 51 13 2.0 2.0 0.00 0.00 0.00 47 1018.1
20260502233955 51 17 3.0 5.0 0.00 0.00 0.00 47 1018.1
20260502233450 51 358 1.0 1.0 0.00 0.00 0.00 46 1018.0
20260502232947 51 333 4.0 5.0 0.00 0.00 0.00 45 1018.1
20260502232443 51 7 3.0 7.0 0.00 0.00 0.00 46 1018.0
20260502231940 52 329 4.0 6.0 0.00 0.00 0.00 45 1018.2
20260502231437 52 327 4.0 5.0 0.00 0.00 0.00 45 1018.2
20260502230936 53 337 2.0 2.0 0.00 0.00 0.00 44 1018.1
20260502230433 53 357 0.0 0.0 0.00 0.00 0.00 46 1017.9
20260502225931 53 350 3.0 3.0 0.00 0.00 0.00 45 1018.0
20260502225427 52 293 1.0 2.0 0.00 0.00 0.00 45 1018.1
20260502224924 52 332 5.0 8.0 0.00 0.00 0.00 45 1018.1
20260502224420 52 322 3.0 3.0 0.00 0.00 0.00 46 1018.1
20260502223917 53 346 2.0 3.0 0.00 0.00 0.00 45 1017.8
20260502223415 54 296 6.0 7.0 0.00 0.00 0.00 42 1017.9
20260502222914 54 341 10.0 11.0 0.00 0.00 0.00 42 1017.8
20260502222410 54 347 2.0 2.0 0.00 0.00 0.00 43 1018.0
20260502221910 54 341 4.0 5.0 0.00 0.00 0.00 42 1017.8
20260502221408 53 2 3.0 5.0 0.00 0.00 0.00 43 1017.6
20260502220905 53 300 3.0 5.0 0.00 0.00 0.00 43 1017.8
20260502220400 53 8 2.0 2.0 0.00 0.00 0.00 42 1017.7
20260502215857 52 315 2.0 2.0 0.00 0.00 0.00 42 1017.7
20260502215355 53 342 0.0 1.0 0.00 0.00 0.00 41 1017.7
20260502214851 55 320 6.0 9.0 0.00 0.00 0.00 39 1017.7
20260502214348 57 282 3.0 3.0 0.00 0.00 0.00 39 1017.8
20260502213845 56 318 4.0 5.0 0.00 0.00 0.00 41 1017.6
20260502213342 55 240 6.0 9.0 0.00 0.00 0.00 41 1017.3
20260502212841 54 7 3.0 5.0 0.00 0.00 0.00 42 1017.4
20260502212339 54 318 7.0 9.0 0.00 0.00 0.00 41 1017.4
20260502211836 55 306 5.0 6.0 0.00 0.00 0.00 41 1017.4
20260502211331 56 354 2.0 2.0 0.00 0.00 0.00 43 1017.3
20260502210829 56 283 5.0 6.0 0.00 0.00 0.00 38 1017.4
20260502210326 55 16 5.0 7.0 0.00 0.00 0.00 41 1017.4
20260502205823 54 354 3.0 5.0 0.00 0.00 0.00 43 1017.3
20260502205319 53 325 5.0 7.0 0.00 0.00 0.00 43 1017.6
20260502204817 53 334 6.0 7.0 0.00 0.00 0.00 43 1017.3
20260502204314 56 339 7.0 8.0 0.00 0.00 0.00 39 1017.6
20260502203811 55 103 3.0 3.0 0.00 0.00 0.00 42 1017.7
20260502203309 53 289 3.0 5.0 0.00 0.00 0.00 44 1017.6
20260502202808 54 26 8.0 11.0 0.00 0.00 0.00 44 1017.7
20260502202307 53 9 4.0 6.0 0.00 0.00 0.00 44 1017.8
20260502201804 53 10 5.0 8.0 0.00 0.00 0.00 44 1017.8
20260502201300 53 30 5.0 7.0 0.00 0.00 0.00 43 1017.8
20260502200756 54 331 4.0 7.0 0.00 0.00 0.00 45 1017.8
20260502200252 54 268 6.0 8.0 0.00 0.00 0.00 43 1018.0